FDX5809 EGSS-LFPG

Flight info

Callsign FDX5809
Flight time 0h 49m
Altitude 25000
Route DET M604 LYD UM189 WAFFU UM605 BIBAX
Aircraft A306/H-SDE3FGHIRWY/LB1

Departure

Time 2026-05-05 15:49
Airport London Stansted Airport (EGSS)

Arrival

Time 2026-05-05 16:38
Airport Charles de Gaulle International Airport (LFPG)
Time Latitude Longitude Altitude Speed Heading
2026-05-05 15:00 51.88563 0.24560 342 ft 0 kts 41°
2026-05-05 15:34 51.88548 0.24540 342 ft 4 kts 37°
2026-05-05 15:34 51.88525 0.24515 353 ft 4 kts 26°
2026-05-05 15:35 51.88501 0.24503 342 ft 4 kts 354°
2026-05-05 15:35 51.88486 0.24511 342 ft 0 kts 313°
2026-05-05 15:40 51.88498 0.24489 342 ft 6 kts 313°
2026-05-05 15:40 51.88548 0.24402 352 ft 12 kts 313°
2026-05-05 15:41 51.88553 0.24390 359 ft 0 kts 295°
2026-05-05 15:41 51.88530 0.24303 357 ft 17 kts 222°
2026-05-05 15:41 51.88450 0.24186 358 ft 12 kts 222°
2026-05-05 15:41 51.88391 0.24100 347 ft 13 kts 221°
2026-05-05 15:42 51.88317 0.23986 352 ft 13 kts 222°
2026-05-05 15:42 51.88222 0.23850 352 ft 21 kts 222°
2026-05-05 15:42 51.88124 0.23703 353 ft 21 kts 222°
2026-05-05 15:42 51.88014 0.23536 352 ft 20 kts 224°
2026-05-05 15:43 51.87918 0.23388 349 ft 18 kts 222°
2026-05-05 15:43 51.87828 0.23257 351 ft 17 kts 223°
2026-05-05 15:43 51.87747 0.23115 352 ft 17 kts 245°
2026-05-05 15:43 51.87770 0.22951 349 ft 15 kts 304°
2026-05-05 15:44 51.87743 0.22829 351 ft 12 kts 219°
2026-05-05 15:44 51.87672 0.22728 348 ft 17 kts 221°
2026-05-05 15:44 51.87587 0.22600 352 ft 17 kts 224°
2026-05-05 15:44 51.87501 0.22464 340 ft 17 kts 225°
2026-05-05 15:45 51.87464 0.22404 335 ft 0 kts 225°
2026-05-05 15:45 51.87459 0.22396 340 ft 4 kts 226°
2026-05-05 15:45 51.87411 0.22311 336 ft 14 kts 232°
2026-05-05 15:45 51.87424 0.22172 332 ft 12 kts 303°
2026-05-05 15:46 51.87453 0.22111 331 ft 0 kts 312°
2026-05-05 15:46 51.87464 0.22090 331 ft 10 kts 313°
2026-05-05 15:46 51.87531 0.22036 331 ft 8 kts 11°
2026-05-05 15:46 51.87546 0.22049 333 ft 0 kts 36°
2026-05-05 15:47 51.87570 0.22083 333 ft 0 kts 42°
2026-05-05 15:48 51.87583 0.22104 332 ft 20 kts 43°
2026-05-05 15:48 51.87861 0.22522 353 ft 87 kts 44°
2026-05-05 15:49 51.88445 0.23404 349 ft 141 kts 43°
2026-05-05 15:49 51.89261 0.24641 463 ft 179 kts 43°
2026-05-05 15:49 51.90192 0.26038 1179 ft 183 kts 42°
2026-05-05 15:49 51.91106 0.27468 2117 ft 185 kts 48°
2026-05-05 15:50 51.91747 0.29306 2811 ft 201 kts 73°
2026-05-05 15:50 51.91705 0.31697 3268 ft 229 kts 107°
2026-05-05 15:50 51.90729 0.33740 4084 ft 232 kts 143°
2026-05-05 15:50 51.89302 0.34537 4141 ft 220 kts 178°
2026-05-05 15:51 51.87894 0.33857 4088 ft 217 kts 216°
2026-05-05 15:51 51.86722 0.32263 4586 ft 222 kts 218°
2026-05-05 15:51 51.85428 0.30905 4874 ft 219 kts 209°
2026-05-05 15:51 51.84099 0.29776 4988 ft 221 kts 207°
2026-05-05 15:52 51.82721 0.28634 5069 ft 222 kts 206°
2026-05-05 15:52 51.81325 0.27588 4970 ft 221 kts 205°
2026-05-05 15:52 51.79928 0.26544 4968 ft 224 kts 205°
2026-05-05 15:52 51.78525 0.25502 5003 ft 225 kts 204°
2026-05-05 15:53 51.77051 0.24749 5001 ft 223 kts 186°
2026-05-05 15:53 51.75557 0.24848 5019 ft 222 kts 166°
2026-05-05 15:53 51.74129 0.25757 4933 ft 220 kts 151°
2026-05-05 15:53 51.72737 0.26901 4975 ft 238 kts 150°
2026-05-05 15:54 51.71176 0.28210 5061 ft 265 kts 150°
2026-05-05 15:54 51.69482 0.29609 5006 ft 276 kts 151°
2026-05-05 15:54 51.67750 0.30963 5004 ft 276 kts 152°
2026-05-05 15:54 51.66037 0.32302 4973 ft 274 kts 152°
2026-05-05 15:55 51.64330 0.33656 4968 ft 273 kts 152°
2026-05-05 15:55 51.62639 0.34995 4965 ft 272 kts 152°
2026-05-05 15:55 51.60931 0.36337 4982 ft 273 kts 153°
2026-05-05 15:55 51.59246 0.37652 4984 ft 272 kts 152°
2026-05-05 15:56 51.57603 0.38938 4991 ft 272 kts 153°
2026-05-05 15:56 51.55895 0.40272 4990 ft 273 kts 153°
2026-05-05 15:56 51.54200 0.41592 4988 ft 274 kts 153°
2026-05-05 15:56 51.52473 0.42937 4989 ft 274 kts 153°
2026-05-05 15:57 51.50758 0.44271 4988 ft 274 kts 153°
2026-05-05 15:57 51.49045 0.45588 4990 ft 274 kts 153°
2026-05-05 15:57 51.47321 0.46902 4993 ft 274 kts 153°
2026-05-05 15:57 51.45595 0.48215 4989 ft 274 kts 153°
2026-05-05 15:58 51.43871 0.49525 4990 ft 276 kts 152°
2026-05-05 15:58 51.42128 0.50849 4991 ft 277 kts 152°
2026-05-05 15:58 51.40411 0.52149 4988 ft 277 kts 152°
2026-05-05 15:58 51.38675 0.53464 4985 ft 276 kts 153°
2026-05-05 15:59 51.36937 0.54776 4980 ft 276 kts 153°
2026-05-05 15:59 51.35201 0.56091 4983 ft 277 kts 152°
2026-05-05 15:59 51.33456 0.57413 4991 ft 277 kts 152°
2026-05-05 15:59 51.31717 0.58728 5282 ft 277 kts 152°
2026-05-05 16:00 51.29989 0.60094 6005 ft 279 kts 150°
2026-05-05 16:00 51.28287 0.61586 7005 ft 280 kts 149°
2026-05-05 16:00 51.26591 0.63154 7976 ft 283 kts 148°
2026-05-05 16:00 51.24889 0.64764 8967 ft 286 kts 148°
2026-05-05 16:01 51.23168 0.66397 9955 ft 289 kts 149°
2026-05-05 16:01 51.21438 0.68032 10646 ft 300 kts 149°
2026-05-05 16:01 51.19579 0.69774 10996 ft 320 kts 149°
2026-05-05 16:01 51.17601 0.71617 11325 ft 339 kts 149°
2026-05-05 16:02 51.15505 0.73560 11627 ft 357 kts 149°
2026-05-05 16:02 51.13312 0.75586 11921 ft 372 kts 149°
2026-05-05 16:02 51.11041 0.77681 12397 ft 381 kts 149°
2026-05-05 16:02 51.08737 0.79803 12999 ft 385 kts 149°
2026-05-05 16:03 51.06383 0.81889 13631 ft 389 kts 152°
2026-05-05 16:03 51.03846 0.83442 14213 ft 394 kts 163°
2026-05-05 16:03 51.01165 0.84121 14748 ft 400 kts 176°
2026-05-05 16:03 50.98379 0.83724 15320 ft 405 kts 192°
2026-05-05 16:04 50.95732 0.82165 15881 ft 410 kts 207°
2026-05-05 16:04 50.93330 0.79711 16525 ft 412 kts 215°
2026-05-05 16:04 50.91048 0.76941 17144 ft 414 kts 219°
2026-05-05 16:04 50.88825 0.74034 17693 ft 417 kts 220°
2026-05-05 16:05 50.86595 0.71051 18246 ft 420 kts 220°
2026-05-05 16:05 50.84354 0.68070 18727 ft 422 kts 220°
2026-05-05 16:05 50.82082 0.65092 19165 ft 426 kts 219°
2026-05-05 16:05 50.79813 0.62164 19600 ft 428 kts 219°
2026-05-05 16:06 50.77490 0.59199 20064 ft 430 kts 219°
2026-05-05 16:06 50.75146 0.56230 20483 ft 433 kts 219°
2026-05-05 16:06 50.72788 0.53253 20915 ft 435 kts 219°
2026-05-05 16:06 50.70415 0.50264 21348 ft 438 kts 219°
2026-05-05 16:07 50.68029 0.47267 21740 ft 440 kts 218°
2026-05-05 16:07 50.65481 0.44560 22077 ft 445 kts 210°
2026-05-05 16:07 50.62646 0.42549 22395 ft 450 kts 198°
2026-05-05 16:07 50.59586 0.41477 22695 ft 454 kts 186°
2026-05-05 16:08 50.56474 0.41499 23119 ft 454 kts 173°
2026-05-05 16:08 50.53402 0.42617 23532 ft 454 kts 160°
2026-05-05 16:08 50.50569 0.44788 23846 ft 455 kts 147°
2026-05-05 16:08 50.47985 0.47651 24228 ft 455 kts 143°
2026-05-05 16:09 50.45500 0.50722 24572 ft 455 kts 141°
2026-05-05 16:09 50.43050 0.53896 24843 ft 456 kts 140°
2026-05-05 16:09 50.40629 0.57065 24902 ft 449 kts 140°
2026-05-05 16:09 50.38262 0.60144 24903 ft 437 kts 140°
2026-05-05 16:10 50.35947 0.63121 24907 ft 435 kts 140°
2026-05-05 16:10 50.33607 0.66098 24910 ft 434 kts 141°
2026-05-05 16:10 50.31256 0.69062 24906 ft 434 kts 141°
2026-05-05 16:10 50.28909 0.72004 24907 ft 433 kts 141°
2026-05-05 16:11 50.26536 0.74970 24900 ft 440 kts 141°
2026-05-05 16:11 50.19198 0.84116 24898 ft 459 kts 141°
2026-05-05 16:12 50.16691 0.87233 24895 ft 462 kts 141°
2026-05-05 16:12 50.11690 0.93440 24898 ft 462 kts 141°
2026-05-05 16:13 50.04334 1.01871 24126 ft 416 kts 151°
2026-05-05 16:13 50.01758 1.03885 23337 ft 414 kts 153°
2026-05-05 16:13 49.99174 1.05810 22689 ft 408 kts 153°
2026-05-05 16:14 49.94174 1.09534 21800 ft 390 kts 153°
2026-05-05 16:14 49.89395 1.13110 20977 ft 386 kts 153°
2026-05-05 16:15 49.84581 1.16712 20140 ft 381 kts 153°
2026-05-05 16:15 49.79831 1.20262 19292 ft 378 kts 153°
2026-05-05 16:16 49.75081 1.23805 18476 ft 378 kts 153°
2026-05-05 16:16 49.70408 1.27281 17616 ft 373 kts 152°
2026-05-05 16:17 49.65770 1.30726 16798 ft 368 kts 153°
2026-05-05 16:17 49.63498 1.32410 16414 ft 367 kts 153°
2026-05-05 16:18 49.58927 1.35792 15618 ft 360 kts 152°
2026-05-05 16:18 49.56672 1.37458 15220 ft 358 kts 152°
2026-05-05 16:18 49.52237 1.40734 14455 ft 356 kts 152°
2026-05-05 16:19 49.50003 1.42380 14063 ft 355 kts 152°
2026-05-05 16:19 49.47774 1.44020 13677 ft 354 kts 152°
2026-05-05 16:19 49.43350 1.47270 12859 ft 351 kts 152°
2026-05-05 16:20 49.38953 1.50495 12108 ft 348 kts 152°
2026-05-05 16:20 49.34652 1.53643 11426 ft 339 kts 152°
2026-05-05 16:21 49.30822 1.57309 10887 ft 312 kts 126°
2026-05-05 16:22 49.29546 1.66233 10344 ft 279 kts 91°
2026-05-05 16:22 49.29315 1.72148 10087 ft 280 kts 91°
2026-05-05 16:23 49.28397 1.77894 9695 ft 281 kts 115°
2026-05-05 16:23 49.27459 1.80510 9443 ft 280 kts 117°
2026-05-05 16:23 49.25534 1.85667 8975 ft 279 kts 118°
2026-05-05 16:24 49.24574 1.88249 8780 ft 279 kts 117°
2026-05-05 16:24 49.23620 1.90824 8550 ft 278 kts 118°
2026-05-05 16:24 49.21722 1.95958 8104 ft 276 kts 117°
2026-05-05 16:25 49.20788 1.98480 7865 ft 275 kts 117°
2026-05-05 16:25 49.18918 2.03531 7441 ft 273 kts 117°
2026-05-05 16:25 49.17981 2.06062 7214 ft 274 kts 117°
2026-05-05 16:26 49.15828 2.10853 6555 ft 280 kts 138°
2026-05-05 16:26 49.12229 2.13020 5567 ft 280 kts 164°
2026-05-05 16:27 49.10386 2.13710 5349 ft 269 kts 163°
2026-05-05 16:27 49.08621 2.14375 5144 ft 256 kts 163°
2026-05-05 16:27 49.06915 2.15030 4876 ft 249 kts 163°
2026-05-05 16:27 49.05280 2.15676 4585 ft 243 kts 161°
2026-05-05 16:28 49.03782 2.16746 4274 ft 233 kts 140°
2026-05-05 16:28 49.02820 2.18562 3976 ft 222 kts 107°
2026-05-05 16:28 49.02687 2.20767 3886 ft 212 kts 74°
2026-05-05 16:28 49.03385 2.22633 3860 ft 204 kts 41°
2026-05-05 16:29 49.04639 2.23638 3838 ft 206 kts 19°
2026-05-05 16:29 49.06004 2.24253 3839 ft 209 kts 16°
2026-05-05 16:29 49.07411 2.24809 3827 ft 209 kts 14°
2026-05-05 16:29 49.08862 2.24741 3828 ft 215 kts 344°
2026-05-05 16:30 49.10076 2.23404 3822 ft 222 kts 311°
2026-05-05 16:30 49.10632 2.21193 3829 ft 231 kts 278°
2026-05-05 16:30 49.10327 2.18790 3829 ft 236 kts 245°
2026-05-05 16:30 49.09234 2.16949 3821 ft 232 kts 211°
2026-05-05 16:31 49.07777 2.16298 3806 ft 212 kts 178°
2026-05-05 16:31 49.06385 2.16738 3829 ft 204 kts 155°
2026-05-05 16:31 49.05119 2.17589 3822 ft 199 kts 151°
2026-05-05 16:31 49.03931 2.18439 3829 ft 178 kts 151°
2026-05-05 16:32 49.02867 2.19200 3820 ft 161 kts 151°
2026-05-05 16:32 49.01969 2.20098 3864 ft 151 kts 125°
2026-05-05 16:32 49.01451 2.21397 3838 ft 148 kts 110°
2026-05-05 16:32 49.01113 2.22846 3832 ft 144 kts 97°
2026-05-05 16:33 49.01012 2.24261 3831 ft 141 kts 85°
2026-05-05 16:33 49.01044 2.25740 3832 ft 139 kts 81°
2026-05-05 16:33 49.01112 2.27193 3724 ft 140 kts 81°
2026-05-05 16:33 49.01191 2.28681 3548 ft 141 kts 81°
2026-05-05 16:34 49.01269 2.30172 3339 ft 140 kts 80°
2026-05-05 16:34 49.01349 2.31633 3136 ft 138 kts 82°
2026-05-05 16:34 49.01427 2.33095 2953 ft 138 kts 82°
2026-05-05 16:34 49.01504 2.34539 2767 ft 135 kts 81°
2026-05-05 16:35 49.01580 2.35942 2582 ft 132 kts 79°
2026-05-05 16:35 49.01655 2.37340 2412 ft 131 kts 79°
2026-05-05 16:35 49.01728 2.38701 2237 ft 131 kts 79°
2026-05-05 16:35 49.01803 2.40078 2039 ft 130 kts 79°
2026-05-05 16:36 49.01878 2.41472 1785 ft 133 kts 78°
2026-05-05 16:36 49.01941 2.42858 1643 ft 130 kts 79°
2026-05-05 16:36 49.02020 2.44236 1520 ft 131 kts 77°
2026-05-05 16:36 49.02110 2.45592 1432 ft 127 kts 78°
2026-05-05 16:37 49.02169 2.46983 1191 ft 136 kts 81°
2026-05-05 16:37 49.02249 2.48422 956 ft 140 kts 81°
2026-05-05 16:37 49.02322 2.49893 758 ft 138 kts 83°
2026-05-05 16:37 49.02377 2.51330 529 ft 134 kts 80°
2026-05-05 16:38 49.02474 2.52707 385 ft 127 kts 79°
2026-05-05 16:38 49.02552 2.53894 368 ft 96 kts 87°
2026-05-05 16:38 49.02590 2.54665 364 ft 47 kts 85°
2026-05-05 16:38 49.02602 2.54988 364 ft 22 kts 89°
2026-05-05 16:39 49.02593 2.55182 368 ft 14 kts 103°
2026-05-05 16:39 49.02559 2.55338 365 ft 17 kts 113°
2026-05-05 16:39 49.02517 2.55475 365 ft 7 kts 115°
2026-05-05 16:39 49.02502 2.55522 365 ft 7 kts 116°
2026-05-05 16:40 49.02475 2.55591 367 ft 5 kts 139°
2026-05-05 16:40 49.02453 2.55606 360 ft 3 kts 161°
2026-05-05 16:40 49.02410 2.55620 362 ft 6 kts 177°
2026-05-05 16:40 49.02350 2.55622 360 ft 12 kts 179°
2026-05-05 16:41 49.02274 2.55628 365 ft 9 kts 176°
2026-05-05 16:41 49.02231 2.55632 368 ft 3 kts 176°
2026-05-05 16:41 49.02207 2.55635 367 ft 6 kts 175°
2026-05-05 16:41 49.02155 2.55641 360 ft 7 kts 175°
2026-05-05 16:42 49.02111 2.55645 362 ft 6 kts 183°
2026-05-05 16:42 49.02066 2.55591 369 ft 9 kts 242°
2026-05-05 16:42 49.02057 2.55517 360 ft 9 kts 264°
2026-05-05 16:42 49.02051 2.55395 360 ft 12 kts 267°
2026-05-05 16:43 49.02046 2.55230 366 ft 19 kts 267°
2026-05-05 16:43 49.02040 2.55012 367 ft 21 kts 267°
2026-05-05 16:43 49.02026 2.54788 365 ft 21 kts 263°
2026-05-05 16:43 49.02013 2.54560 364 ft 22 kts 266°
2026-05-05 16:44 49.02004 2.54336 367 ft 18 kts 267°
2026-05-05 16:44 49.01970 2.54176 369 ft 16 kts 227°
2026-05-05 16:44 49.01899 2.54035 367 ft 17 kts 254°
2026-05-05 16:44 49.01885 2.53850 360 ft 18 kts 265°
2026-05-05 16:45 49.01874 2.53658 367 ft 18 kts 265°
2026-05-05 16:45 49.01864 2.53462 360 ft 19 kts 265°
2026-05-05 16:45 49.01853 2.53261 361 ft 19 kts 265°
2026-05-05 16:45 49.01836 2.53058 364 ft 19 kts 254°
2026-05-05 16:46 49.01749 2.52916 367 ft 19 kts 214°
2026-05-05 16:46 49.01656 2.52779 367 ft 19 kts 247°
2026-05-05 16:46 49.01576 2.52623 369 ft 19 kts 217°
2026-05-05 16:46 49.01537 2.52454 363 ft 18 kts 264°
2026-05-05 16:47 49.01526 2.52264 367 ft 18 kts 265°
2026-05-05 16:47 49.01515 2.52071 368 ft 19 kts 265°
2026-05-05 16:47 49.01505 2.51868 366 ft 19 kts 266°
2026-05-05 16:47 49.01494 2.51662 362 ft 20 kts 264°
2026-05-05 16:48 49.01483 2.51445 364 ft 20 kts 266°
2026-05-05 16:48 49.01475 2.51227 360 ft 21 kts 267°
2026-05-05 16:48 49.01469 2.51007 364 ft 21 kts 266°
2026-05-05 16:48 49.01460 2.50862 365 ft 21 kts 261°
2026-05-05 16:49 49.01440 2.50641 367 ft 21 kts 264°
2026-05-05 16:49 49.01419 2.50431 366 ft 16 kts 241°
2026-05-05 16:49 49.01286 2.50378 369 ft 16 kts 176°
2026-05-05 16:49 49.01199 2.50386 365 ft 10 kts 176°
2026-05-05 16:50 49.01131 2.50392 367 ft 7 kts 176°
2026-05-05 16:50 49.01109 2.50383 367 ft 3 kts 212°
2026-05-05 16:50 49.01102 2.50356 367 ft 3 kts 258°
2026-05-05 16:50 49.01097 2.50305 367 ft 4 kts 265°
2026-05-05 16:51 49.01096 2.50286 367 ft 1 kts 265°
2026-05-05 16:51 49.01095 2.50269 366 ft 0 kts 265°